Westminster, MD

2:01 AM EDT on April 29, 2017 (GMT -0400)
Carroll County Regional-Poage

Weather History for KDMW - August, 2014

Change the Weather History Date:

Wednesday, August 27, 2014

  Actual Average (KTHV) Record (KTHV)
Temperature  
Mean Temperature 74 °F -  
Max Temperature 87 °F 90 °F 90 °F (1970)
Min Temperature 62 °F 58 °F 48 °F (2008)
Cooling Degree Days 10    
Growing Degree Days 24 (Base 50)    
Moisture  
Dew Point 66 °F    
Average Humidity 74    
Maximum Humidity 94    
Minimum Humidity 51    
Precipitation  
Precipitation 0.00 in - - ()
Sea Level Pressure  
Sea Level Pressure 30.03 in    
Wind  
Wind Speed 2 mph (WSW)    
Max Wind Speed 8 mph    
Max Gust Speed -    
Visibility 10 miles    
Events      
Averages and records for this station are not official NWS values.
T = Trace of Precipitation, MM = Missing Value Source: NWS Daily Summary

Daily Weather History Graph

Daily Weather History Graph

Search for Another Location

Airport or City:

Trip Planner

Search our weather history database for the weather conditions in past years. The results will help you decide how hot, cold, wet, or windy it might be!

Date:

Astronomy

Aug. 27, 2014 Rise Set
Actual Time 6:31 AM EDT 7:46 PM EDT
Civil Twilight 6:03 AM EDT 8:14 PM EDT
Nautical Twilight 5:30 AM EDT 8:47 PM EDT
Astronomical Twilight 4:55 AM EDT 9:22 PM EDT
Moon 8:25 AM EDT (8/27) 8:38 PM EDT (8/27)
Length of Visible Light 14h 11m
Length of Day
13h 15m
Waxing Crescent, 4% of the Moon is Illuminated
Aug 27
Waxing Crescent
Sep 2
First Quarter
Sep 8
Full
Sep 15
Last Quarter
Sep 24
New

Hourly Weather History & Observations

Time (EDT) Temp. Heat Index Dew Point Humidity Pressure Visibility Wind Dir Wind Speed Gust Speed Precip Events Conditions
1:10 AM 66.2 °F - 62.6 °F 88% 30.11 in 10.0 mi North - - N/A   Clear
1:30 AM 66.2 °F - 62.6 °F 88% 30.10 in 10.0 mi Calm Calm - N/A   Clear
1:45 AM 66.2 °F - 62.6 °F 88% 30.09 in 10.0 mi Calm Calm - N/A   Scattered Clouds
2:10 AM 66.2 °F - 62.6 °F 88% 30.09 in 10.0 mi Calm Calm - N/A   Clear
2:25 AM 66.2 °F - 60.8 °F 83% 30.09 in 10.0 mi Calm Calm - N/A   Clear
2:40 AM 64.4 °F - 60.8 °F 88% 30.08 in 10.0 mi North - - N/A   Clear
3:05 AM 64.4 °F - 60.8 °F 88% 30.08 in 10.0 mi Calm Calm - N/A   Scattered Clouds
3:30 AM 64.4 °F - 60.8 °F 88% 30.07 in 10.0 mi Calm Calm - N/A   Scattered Clouds
3:50 AM 64.4 °F - 60.8 °F 88% 30.07 in 10.0 mi Calm Calm - N/A   Scattered Clouds
4:10 AM 62.6 °F - 60.8 °F 94% 30.07 in 10.0 mi North - - N/A   Clear
4:30 AM 62.6 °F - 60.8 °F 94% 30.08 in 10.0 mi Calm Calm - N/A   Clear
4:50 AM 62.6 °F - 60.8 °F 94% 30.08 in 7.0 mi NNE 3.5 mph - N/A   Clear
5:10 AM 62.6 °F - 60.8 °F 94% 30.08 in 7.0 mi Calm Calm - N/A   Clear
5:30 AM 62.6 °F - 60.8 °F 94% 30.08 in 10.0 mi Calm Calm - N/A   Clear
5:50 AM 62.6 °F - 60.8 °F 94% 30.08 in 10.0 mi Calm Calm - N/A   Scattered Clouds
6:05 AM 62.6 °F - 60.8 °F 94% 30.08 in 7.0 mi Calm Calm - N/A   Clear
6:30 AM 62.6 °F - 60.8 °F 94% 30.08 in 7.0 mi Calm Calm - N/A   Clear
6:50 AM 62.6 °F - 60.8 °F 94% 30.08 in 10.0 mi Calm Calm - N/A   Clear
7:10 AM 62.6 °F - 60.8 °F 94% 30.09 in 10.0 mi Calm Calm - N/A   Clear
7:15 AM 64.4 °F - 60.8 °F 88% 30.09 in 10.0 mi Calm Calm - N/A   Clear
8:10 AM 69.8 °F - 62.6 °F 78% 30.09 in 10.0 mi Calm Calm - N/A   Clear
8:30 AM 69.8 °F - 62.6 °F 78% 30.09 in 10.0 mi Calm Calm - N/A   Clear
8:40 AM 71.6 °F - 62.6 °F 73% 30.09 in 10.0 mi Calm Calm - N/A   Clear
9:10 AM 75.2 °F - 64.4 °F 69% 30.10 in 2.5 mi WSW 3.5 mph - N/A   Haze
9:30 AM 75.2 °F - 66.2 °F 73% 30.09 in 10.0 mi SW 3.5 mph - N/A   Clear
9:50 AM 75.2 °F - 66.2 °F 73% 30.09 in 10.0 mi Calm Calm - N/A   Clear
10:10 AM 78.8 °F - 64.4 °F 61% 30.09 in 10.0 mi WSW 3.5 mph - N/A   Clear
10:30 AM 77.0 °F - 64.4 °F 65% 30.09 in 10.0 mi Calm Calm - N/A   Scattered Clouds
10:50 AM 78.8 °F - 64.4 °F 61% 30.09 in 10.0 mi SSW 3.5 mph - N/A   Scattered Clouds
11:10 AM 78.8 °F - 66.2 °F 65% 30.08 in 10.0 mi SSW 4.6 mph - N/A   Scattered Clouds
11:30 AM 78.8 °F - 64.4 °F 61% 30.08 in 10.0 mi WSW 3.5 mph - N/A   Clear
11:50 AM 80.6 °F 82.3 °F 64.4 °F 58% 30.07 in 10.0 mi West 4.6 mph - N/A   Clear
12:10 PM 80.6 °F 82.3 °F 64.4 °F 58% 30.07 in 10.0 mi West 4.6 mph - N/A   Clear
12:30 PM 82.4 °F 83.9 °F 64.4 °F 54% 30.06 in 10.0 mi WSW 4.6 mph - N/A   Clear
12:50 PM 82.4 °F 83.4 °F 62.6 °F 51% 30.05 in 10.0 mi SW 4.6 mph - N/A   Clear
1:10 PM 82.4 °F 83.9 °F 64.4 °F 54% 30.04 in 10.0 mi SSW 3.5 mph - N/A   Clear
1:30 PM 84.2 °F 85.6 °F 64.4 °F 51% 30.03 in 10.0 mi SW 3.5 mph - N/A   Scattered Clouds
1:50 PM 82.4 °F 84.6 °F 66.2 °F 58% 30.03 in 10.0 mi WNW 3.5 mph - N/A   Scattered Clouds
2:10 PM 84.2 °F 86.6 °F 66.2 °F 55% 30.02 in 10.0 mi NNW 3.5 mph - N/A   Scattered Clouds
2:30 PM 84.2 °F 86.6 °F 66.2 °F 55% 30.01 in 10.0 mi NW 3.5 mph - N/A   Clear
3:10 PM 87.8 °F 92.6 °F 69.8 °F 55% 29.99 in 10.0 mi SW 4.6 mph - N/A   Clear
3:30 PM 86.0 °F 90.4 °F 69.8 °F 58% 29.99 in 10.0 mi WSW 5.8 mph - N/A   Scattered Clouds
3:50 PM 86.0 °F 90.4 °F 69.8 °F 58% 29.98 in 10.0 mi SW 6.9 mph - N/A   Clear
4:10 PM 86.0 °F 90.4 °F 69.8 °F 58% 29.98 in 10.0 mi Calm Calm - N/A   Clear
4:30 PM 87.8 °F 92.6 °F 69.8 °F 55% 29.98 in 10.0 mi West 6.9 mph - N/A   Clear
4:50 PM 87.8 °F 92.6 °F 69.8 °F 55% 29.97 in 10.0 mi WSW 5.8 mph - N/A   Clear
5:10 PM 86.0 °F 90.4 °F 69.8 °F 58% 29.97 in 10.0 mi SW 5.8 mph - N/A   Clear
5:35 PM 86.0 °F 90.4 °F 69.8 °F 58% 29.97 in 10.0 mi SSW 4.6 mph - N/A   Clear
5:55 PM 84.2 °F 88.4 °F 69.8 °F 62% 29.97 in 10.0 mi WSW 6.9 mph - N/A   Clear
6:15 PM 84.2 °F 88.4 °F 69.8 °F 62% 29.96 in 10.0 mi WSW 5.8 mph - N/A   Clear
6:35 PM 84.2 °F 89.6 °F 71.6 °F 66% 29.95 in 10.0 mi WSW 6.9 mph - N/A   Clear
6:55 PM 84.2 °F 89.6 °F 71.6 °F 66% 29.95 in 10.0 mi WSW 3.5 mph - N/A   Clear
7:15 PM 82.4 °F 87.2 °F 71.6 °F 70% 29.94 in 10.0 mi Calm Calm - N/A   Clear
7:35 PM 82.4 °F 87.2 °F 71.6 °F 70% 29.95 in 10.0 mi WSW 4.6 mph - N/A   Scattered Clouds
7:55 PM 80.6 °F 84.6 °F 71.6 °F 74% 29.94 in 10.0 mi WSW 3.5 mph - N/A   Clear
8:15 PM 80.6 °F 84.6 °F 71.6 °F 74% 29.95 in 10.0 mi Calm Calm - N/A   Clear
8:35 PM 78.8 °F - 71.6 °F 78% 29.95 in 10.0 mi Calm Calm - N/A   Clear
8:55 PM 78.8 °F - 71.6 °F 78% 29.96 in 10.0 mi WSW 4.6 mph - N/A   Clear
9:15 PM 78.8 °F - 71.6 °F 78% 29.95 in 10.0 mi West 4.6 mph - N/A   Scattered Clouds
9:35 PM 78.8 °F - 71.6 °F 78% 29.95 in 10.0 mi SW 4.6 mph - N/A   Clear
9:55 PM 77.0 °F - 71.6 °F 83% 29.95 in 10.0 mi WSW 4.6 mph - N/A   Scattered Clouds
10:15 PM 77.0 °F - 71.6 °F 83% 29.95 in 10.0 mi WSW 4.6 mph - N/A   Scattered Clouds
10:35 PM 78.8 °F - 71.6 °F 78% 29.95 in 10.0 mi West 5.8 mph - N/A   Scattered Clouds
10:55 PM 80.6 °F 84.6 °F 71.6 °F 74% 29.95 in 10.0 mi West 6.9 mph - N/A   Clear
11:15 PM 78.8 °F - 71.6 °F 78% 29.95 in 10.0 mi West 8.1 mph - N/A   Clear
11:35 PM 78.8 °F - 71.6 °F 78% 29.95 in 10.0 mi West 4.6 mph - N/A   Clear
11:55 PM 78.8 °F - 71.6 °F 78% 29.95 in 10.0 mi Calm Calm - N/A   Scattered Clouds